| time (UTC) | temp C | wind direction | speed KPH | gust KPH | rain 1hr cm | rain 24hr cm | rain mn cm | humidity % | barometer mb |
| 20260504040033 | 13 | 45 | 0.0 | 3.2 | 0.00 | 0.23 | 0.23 | 100 | 981.3 |
| 20260504034536 | 13 | 43 | 3.2 | 6.4 | 0.00 | 0.23 | 0.23 | 100 | 981.5 |
| 20260504033031 | 13 | 43 | 3.2 | 8.0 | 0.00 | 0.23 | 0.23 | 100 | 981.7 |
| 20260504030050 | 14 | 56 | 0.0 | 3.2 | 0.00 | 0.23 | 0.23 | 100 | 981.9 |
| 20260504024548 | 14 | 58 | 0.0 | 6.4 | 0.00 | 0.23 | 0.23 | 100 | 982.0 |
| 20260504023039 | 15 | 58 | 3.2 | 8.0 | 0.00 | 0.23 | 0.23 | 100 | 981.8 |
| 20260504021537 | 15 | 58 | 0.0 | 3.2 | 0.00 | 0.23 | 0.23 | 100 | 981.7 |
| 20260504020031 | 15 | 60 | 1.6 | 8.0 | 0.00 | 0.23 | 0.23 | 100 | 981.5 |
| 20260504014526 | 15 | 59 | 1.6 | 12.9 | 0.00 | 0.23 | 0.23 | 100 | 981.4 |
| 20260504013029 | 16 | 50 | 1.6 | 11.3 | 0.00 | 0.23 | 0.23 | 100 | 981.4 |
| 20260504011516 | 16 | 54 | 3.2 | 11.3 | 0.00 | 0.23 | 0.23 | 100 | 981.2 |
| 20260504010013 | 17 | 56 | 3.2 | 11.3 | 0.00 | 0.23 | 0.23 | 100 | 981.2 |
| 20260504004510 | 17 | 61 | 3.2 | 16.1 | 0.00 | 0.23 | 0.23 | 100 | 981.2 |
| 20260504003100 | 18 | 63 | 4.8 | 16.1 | 0.00 | 0.23 | 0.23 | 100 | 981.4 |
| 20260504001612 | 18 | 42 | 4.8 | 17.7 | 0.00 | 0.23 | 0.23 | 100 | 981.2 |
| 20260504000052 | 18 | 63 | 8.0 | 22.5 | 0.00 | 0.23 | 0.23 | 100 | 981.3 |
| 20260503234548 | 19 | 58 | 6.4 | 17.7 | 0.00 | 0.23 | 0.23 | 100 | 981.3 |
| 20260503233040 | 19 | 57 | 1.6 | 25.7 | 0.00 | 0.23 | 0.23 | 100 | 981.2 |
| 20260503231536 | 19 | 48 | 6.4 | 19.3 | 0.00 | 0.23 | 0.23 | 100 | 981.4 |
| 20260503230032 | 19 | 31 | 3.2 | 25.7 | 0.00 | 0.23 | 0.23 | 100 | 981.5 |
| 20260503224528 | 18 | 40 | 4.8 | 17.7 | 0.00 | 0.23 | 0.23 | 100 | 981.6 |
| 20260503223020 | 18 | 22 | 4.8 | 24.1 | 0.00 | 0.23 | 0.23 | 100 | 981.8 |
| 20260503221528 | 18 | 37 | 1.6 | 27.4 | 0.00 | 0.23 | 0.23 | 100 | 981.9 |
| 20260503220012 | 18 | 42 | 4.8 | 20.9 | 0.00 | 0.23 | 0.23 | 100 | 982.1 |
| 20260503214507 | 19 | 16 | 6.4 | 25.7 | 0.00 | 0.23 | 0.23 | 100 | 982.3 |
| 20260503213003 | 18 | 39 | 4.8 | 29.0 | 0.00 | 0.23 | 0.23 | 100 | 982.5 |
| 20260503211608 | 18 | 58 | 1.6 | 27.4 | 0.00 | 0.23 | 0.23 | 100 | 982.8 |
| 20260503210056 | 17 | 25 | 9.7 | 33.8 | 0.00 | 0.23 | 0.23 | 100 | 983.1 |
| 20260503204553 | 17 | 75 | 3.2 | 32.2 | 0.00 | 0.23 | 0.23 | 100 | 983.3 |
| 20260503203040 | 18 | 91 | 6.4 | 30.6 | 0.00 | 0.23 | 0.23 | 100 | 983.4 |
| 20260503201537 | 17 | 13 | 9.7 | 30.6 | 0.00 | 0.23 | 0.23 | 100 | 983.6 |
| 20260503200034 | 17 | 11 | 17.7 | 37.0 | 0.00 | 0.23 | 0.23 | 100 | 983.6 |
| 20260503194530 | 17 | 13 | 3.2 | 33.8 | 0.00 | 0.23 | 0.23 | 100 | 983.8 |
| 20260503193021 | 17 | 25 | 17.7 | 35.4 | 0.00 | 0.23 | 0.23 | 100 | 984.1 |
| 20260503191521 | 16 | 2 | 4.8 | 33.8 | 0.00 | 0.23 | 0.23 | 100 | 984.5 |
| 20260503190019 | 15 | 50 | 9.7 | 35.4 | 0.00 | 0.23 | 0.23 | 100 | 984.7 |
| 20260503184509 | 13 | 14 | 4.8 | 30.6 | 0.03 | 0.23 | 0.23 | 100 | 985.1 |
| 20260503183112 | 12 | 350 | 6.4 | 25.7 | 0.05 | 0.23 | 0.23 | 100 | 985.4 |
| 20260503181622 | 10 | 35 | 6.4 | 17.7 | 0.08 | 0.23 | 0.23 | 100 | 985.7 |
| 20260503180113 | 9 | 33 | 4.8 | 20.9 | 0.10 | 0.23 | 0.23 | 100 | 986.3 |
| 20260503174555 | 9 | 41 | 1.6 | 22.5 | 0.08 | 0.20 | 0.20 | 100 | 987.1 |
| 20260503173053 | 9 | 53 | 1.6 | 16.1 | 0.05 | 0.18 | 0.18 | 100 | 987.8 |
| 20260503171639 | 9 | 26 | 3.2 | 12.9 | 0.08 | 0.15 | 0.15 | 100 | 988.2 |
| 20260503150103 | 12 | 67 | 8.0 | 24.1 | 0.00 | 0.00 | 0.00 | 100 | 988.8 |
| 20260503081518 | 6 | 66 | 4.8 | 14.5 | 0.00 | 0.00 | 0.00 | 100 | 990.1 |
| 20260503071531 | 6 | 52 | 3.2 | 9.7 | 0.00 | 0.00 | 0.00 | 100 | 990.2 |
| 20260503054557 | 7 | 62 | 1.6 | 14.5 | 0.00 | 0.00 | 0.00 | 100 | 990.9 |
| 20260503053053 | 7 | 66 | 3.2 | 14.5 | 0.00 | 0.00 | 0.00 | 100 | 991.1 |
| 20260503051549 | 7 | 87 | 3.2 | 11.3 | 0.00 | 0.00 | 0.00 | 100 | 991.1 |
| 20260503050042 | 7 | 92 | 1.6 | 6.4 | 0.00 | 0.00 | 0.00 | 100 | 991.2 |
| 20260503044607 | 7 | 93 | 1.6 | 6.4 | 0.00 | 0.00 | 0.00 | 100 | 991.3 |
| 20260503043034 | 7 | 94 | 1.6 | 4.8 | 0.00 | 0.00 | 0.00 | 100 | 991.3 |
| 20260503041529 | 7 | 95 | 1.6 | 8.0 | 0.00 | 0.00 | 0.00 | 100 | 991.4 |